ATLAS 5 CENTAUR DEB, 52969

Orbit data source: Space-Track

ATLAS 5 CENTAUR DEB, 52969 is space debris in HEO originally from a launch on Wed, 17 Oct 2018 UTC launched from the Air Force Eastern Test Range (AFETR). Debris objects in space refer to the collection of defunct objects orbiting the Earth. Examples of debris include non-operational satellites, rocket bodies, and fragments generated from explosions, collisions, or faulty payload assembly.

Loading next visibility...
Identifier
52969, 2018-079GT
Orbit
HEO
Country
Flag of USUS
Related business
Flag of USUnited Launch Alliance/Lockheed Martin (US)
Manufacturer
ULA Decatur
Mission
Spacecraft
Bus & Motor
Unknown
Mass
Unknown
Launch date (UTC)
2018-10-17 (8 years ago)
Launch vehicle
Unknown
Launch site
Air Force Eastern Test Range (AFETR)
Object type
Payload
Rocket body
Debris
Shape & HBR
Unknown shape, 1.1 m
Radar Cross Section
RCS unknown

Expand to show TLE details & history
Last TLE update: 1 month ago

TLE from 1 month ago
0 ATLAS 5 CENTAUR DEB
1 52969U 18079GT  26141.05828043 -.00000144  00000-0  00000-0 0  9990
2 52969  13.1444  29.2839 4559564 348.8148   3.8393  1.94552692 28242
Epoch: 2026-05-21T01:23Z
TLE epoch observation values (Epoch: 2026-05-21T01:23:55.429Z)
Latitude
Longitude
129.56915°
Altitude
8,454.035 km
Speed
6.248 km/s
True Right ascension
01h 57m 02s
True Declination
0° 00' 00"
Sunlit
Object was in daylight at epoch
Visualization orbit readout
Latitude
Unknown
Longitude
Unknown
Altitude
Unknown
Speed
Unknown
Apparent Right ascension
Unknown
Apparent Declination
Unknown
Sunlit
N/A
Visualization observer readout
Local Sidereal Time
21:42:39
Azimuth
Unknown
Elevation
Unknown
Doppler factor
Unknown
Orbital elements
Apogee altitude
33,088.16 km
Perigee altitude
8,369.136 km
Semi-major axis
27,106.785 km
Eccentricity
0.45596
Inclination
13.1444°
RAAN
29.2839°
Arg. of periapsis
348.8148°
True anomaly
11.49603°
Mean anomaly
3.8393°
Eccentric anomaly
7.04212°
Mean motion
0.48632 °/min
Orbital period
740.25 mins
BSTAR
0
Loading maneuver chart data...
Computing Atmospheric mass density...

Documentation

Showing up to 5 results
|